Location: Newark
(15.4608°S, 41.1635°W)
Time: 00:15:10
(UTC+00:00)

A-11 Canister half - Visible Passes

Search period start: 31 July 2021 00:00
Search period end: 10 August 2021 00:00
Orbit: 1527 x 1682 km, 47.3° (Epoch: 30 July)

Date Brightness Start Highest point End Pass type
(mag) Time Alt. Az. Time Alt. Az. Time Alt. Az.
31 Jul 10.7 08:01:26 10° SSW 08:08:36 22° SE 08:15:54 10° E visible
31 Jul 9.7 23:05:54 10° NNW 23:11:53 38° N 23:11:53 38° N visible
01 Aug 10.8 07:39:56 10° SSW 07:46:50 21° SE 07:53:48 10° E visible
01 Aug 9.4 22:44:22 10° NNW 22:51:53 42° NNE 22:51:53 42° NNE visible
02 Aug 11.1 00:49:16 10° WNW 00:50:14 13° WNW 00:50:14 13° WNW visible
02 Aug 10.8 07:18:27 10° S 07:25:03 20° SSE 07:31:43 10° ESE visible
02 Aug 9.3 22:22:52 10° NNW 22:31:30 41° NE 22:31:58 41° ENE visible
03 Aug 10.7 00:27:28 10° WNW 00:30:18 21° WNW 00:30:18 21° WNW visible
03 Aug 10.8 06:56:59 10° S 07:03:14 19° SSE 07:09:35 10° ESE visible
03 Aug 9.4 22:01:23 10° NNW 22:09:52 38° NE 22:12:04 34° E visible
04 Aug 10.2 00:05:40 10° WNW 00:10:24 31° W 00:10:24 31° W visible
04 Aug 10.8 06:36:36 12° S 06:41:27 17° SSE 06:47:26 10° ESE visible
04 Aug 9.5 08:38:05 10° SW 08:47:48 68° SE 08:57:45 10° NE visible
04 Aug 9.6 21:39:54 10° N 21:48:14 35° NE 21:52:12 26° E visible
04 Aug 9.7 23:43:53 10° WNW 23:50:32 43° W 23:50:32 43° W visible
05 Aug 10.8 06:16:21 14° S 06:19:39 16° SSE 06:25:15 10° ESE visible
05 Aug 9.5 08:16:27 10° SW 08:26:07 64° SE 08:36:00 10° NE visible
05 Aug 9.7 21:18:27 10° N 21:26:36 33° NE 21:32:22 18° ESE visible
05 Aug 9.3 23:22:07 10° WNW 23:30:43 55° WSW 23:30:43 55° WSW visible
06 Aug 10.8 05:56:10 15° SSE 05:57:50 15° SSE 06:03:01 10° ESE visible
06 Aug 9.5 07:54:51 10° SSW 08:04:25 60° SE 08:14:13 10° NE visible
06 Aug 9.8 20:57:00 10° N 21:04:58 30° NE 21:12:33 11° ESE visible
06 Aug 9.2 23:00:22 10° WNW 23:09:35 59° SW 23:10:54 55° SSW visible
07 Aug 10.9 05:36:02 14° SSE 05:36:02 14° SSE 05:40:46 10° ESE visible
07 Aug 9.6 07:34:21 14° SSW 07:42:43 56° SE 07:52:26 10° ENE visible
07 Aug 9.2 22:38:38 10° NW 22:47:55 63° SW 22:51:05 44° SSE visible
08 Aug 11.2 00:49:12 10° WSW 00:49:26 10° WSW 00:49:26 10° WSW visible
08 Aug 11.1 05:15:58 13° SE 05:15:58 13° SE 05:18:27 10° SE visible
08 Aug 9.6 07:14:17 21° SSW 07:21:01 53° SE 07:30:37 10° ENE visible
08 Aug 9.1 22:16:53 10° NW 22:26:16 67° SW 22:31:15 31° SSE visible
09 Aug 11.0 00:27:03 10° WSW 00:29:36 14° SW 00:29:36 14° SW visible
09 Aug 11.2 04:55:57 10° SE 04:55:57 10° SE 04:56:05 10° SE visible
09 Aug 9.6 06:54:17 28° SSW 06:59:19 50° SE 07:08:48 10° ENE visible
09 Aug 9.1 21:55:10 10° NW 22:04:36 72° SW 22:11:24 21° SSE visible
